EW4921 Weather Reports


Display with metric or nautical units.
time (UTC)temp
F
wind
direction
speed
MPH
gust
MPH
rain 1hr
in
rain 24hr
in
rain mn
in
humidity
%
barometer
mb
20260904094033 55 89 1.0 1.0 0.00 0.00 0.00 89 1012.8
20260904093553 55 46 0.0 1.0 0.00 0.00 0.00 88 1012.7
20260904093026 55 1 0.0 1.0 0.00 0.00 0.00 88 1012.6
20260904092527 55 46 0.0 2.0 0.00 0.00 0.00 88 1012.6
20260904092022 55 124 0.0 2.0 0.00 0.00 0.00 88 1012.7
20260904091541 55 178 0.0 1.0 0.00 0.00 0.00 88 1012.8
20260904091018 55 331 0.0 1.0 0.00 0.00 0.00 88 1012.8
20260904090543 55 63 0.0 2.0 0.00 0.00 0.00 87 1012.8
20260904090017 55 178 1.0 2.0 0.00 0.00 0.00 87 1012.7
20260904085537 56 344 0.0 1.0 0.00 0.00 0.00 87 1012.8
20260904085028 56 340 0.0 1.0 0.00 0.00 0.00 87 1012.9
20260904084525 56 340 1.0 2.0 0.00 0.00 0.00 87 1012.9
20260904084024 56 28 1.0 2.0 0.00 0.00 0.00 88 1012.9
20260904083539 56 360 1.0 2.0 0.00 0.00 0.00 88 1012.9
20260904083052 56 89 1.0 2.0 0.00 0.00 0.00 87 1012.9
20260904082533 56 1 0.0 2.0 0.00 0.00 0.00 87 1013.0
20260904082020 56 63 1.0 1.0 0.00 0.00 0.00 87 1013.1
20260904081521 56 72 0.0 1.0 0.00 0.00 0.00 87 1013.2
20260904081019 56 89 0.0 1.0 0.00 0.00 0.00 87 1013.1
20260904080601 56 46 0.0 1.0 0.00 0.00 0.00 87 1013.2
20260904080047 56 1 0.0 2.0 0.00 0.00 0.00 86 1013.2
20260904075542 57 331 0.0 1.0 0.00 0.00 0.00 86 1013.2
20260904075040 57 46 0.0 1.0 0.00 0.00 0.00 86 1013.3
20260904074603 57 331 0.0 1.0 0.00 0.00 0.00 86 1013.2
20260904074034 57 28 1.0 2.0 0.00 0.00 0.00 86 1013.2
20260904073534 57 63 0.0 1.0 0.00 0.00 0.00 86 1013.2
20260904073026 57 89 0.0 1.0 0.00 0.00 0.00 86 1013.2
20260904072526 57 1 0.0 1.0 0.00 0.00 0.00 86 1013.2
20260904072014 57 1 0.0 2.0 0.00 0.00 0.00 85 1013.1
20260904071517 57 1 0.0 2.0 0.00 0.00 0.00 85 1013.1
20260904071028 57 11 1.0 2.0 0.00 0.00 0.00 85 1013.1
20260904070551 57 20 0.0 2.0 0.00 0.00 0.00 85 1013.2
20260904070017 58 1 1.0 2.0 0.00 0.00 0.00 85 1013.1
20260904065534 58 1 0.0 2.0 0.00 0.00 0.00 85 1013.1
20260904065025 58 1 0.0 2.0 0.00 0.00 0.00 85 1013.1
20260904064526 58 35 1.0 2.0 0.00 0.00 0.00 85 1013.1
20260904064024 58 1 1.0 2.0 0.00 0.00 0.00 84 1013.1
20260904063525 58 1 1.0 2.0 0.00 0.00 0.00 84 1013.0
20260904063016 58 1 1.0 2.0 0.00 0.00 0.00 84 1012.9
20260904062554 58 46 0.0 2.0 0.00 0.00 0.00 84 1012.9
20260904062024 58 28 1.0 2.0 0.00 0.00 0.00 84 1012.9
20260904061522 59 1 1.0 2.0 0.00 0.00 0.00 84 1012.9
20260904061034 59 35 1.0 2.0 0.00 0.00 0.00 83 1012.9
20260904060601 59 35 1.0 2.0 0.00 0.00 0.00 83 1012.9
20260904060022 59 1 1.0 2.0 0.00 0.00 0.00 83 1012.9
20260904055523 59 46 1.0 1.0 0.00 0.00 0.00 83 1012.9
20260904055043 59 1 1.0 1.0 0.00 0.00 0.00 83 1012.9
20260904054523 59 1 1.0 1.0 0.00 0.00 0.00 83 1012.9
20260904054022 59 314 0.0 1.0 0.00 0.00 0.00 82 1013.0
20260904053525 60 1 0.0 1.0 0.00 0.00 0.00 82 1013.0
20260904053034 60 46 0.0 2.0 0.00 0.00 0.00 83 1013.0
20260904052535 60 28 0.0 2.0 0.00 0.00 0.00 82 1013.1
20260904052025 60 46 0.0 1.0 0.00 0.00 0.00 82 1013.1
20260904051526 60 1 0.0 1.0 0.00 0.00 0.00 82 1013.1
20260904051025 61 46 0.0 1.0 0.00 0.00 0.00 82 1013.1
20260904050610 61 89 0.0 1.0 0.00 0.00 0.00 82 1013.2
20260904050053 61 89 0.0 1.0 0.00 0.00 0.00 82 1013.2
20260904045532 61 178 0.0 1.0 0.00 0.00 0.00 81 1013.3
20260904045025 61 35 1.0 2.0 0.00 0.00 0.00 81 1013.2
20260904044525 61 28 0.0 2.0 0.00 0.00 0.00 81 1013.2
20260904044040 62 1 0.0 1.0 0.00 0.00 0.00 80 1013.3
20260904043540 62 1 0.0 1.0 0.00 0.00 0.00 80 1013.2
20260904043032 62 89 0.0 1.0 0.00 0.00 0.00 80 1013.2
20260904042535 62 1 0.0 1.0 0.00 0.00 0.00 80 1013.2
20260904042028 62 1 0.0 1.0 0.00 0.00 0.00 79 1013.3
20260904041014 63 46 0.0 1.0 0.00 0.00 0.00 79 1013.2
20260904040559 63 46 0.0 1.0 0.00 0.00 0.00 79 1013.2
20260904040025 63 1 0.0 1.0 0.00 0.00 0.00 78 1013.1
20260904035521 63 1 0.0 1.0 0.00 0.00 0.00 78 1013.1
20260904035020 64 1 0.0 1.0 0.00 0.00 0.00 78 1013.1
20260904034538 64 46 0.0 1.0 0.00 0.00 0.00 77 1013.1
20260904034028 64 1 0.0 1.0 0.00 0.00 0.00 76 1013.1
20260904033521 65 178 0.0 1.0 0.00 0.00 0.00 76 1013.0
20260904033033 65 46 0.0 1.0 0.00 0.00 0.00 75 1013.0
20260904032536 65 340 1.0 2.0 0.00 0.00 0.00 75 1012.9
20260904032044 65 331 0.0 2.0 0.00 0.00 0.00 74 1013.0
20260904031524 65 269 0.0 2.0 0.00 0.00 0.00 74 1012.8
20260904031044 66 1 0.0 2.0 0.00 0.00 0.00 74 1012.7
20260904030546 66 283 1.0 2.0 0.00 0.00 0.00 73 1012.7
20260904030032 66 295 0.0 2.0 0.00 0.00 0.00 73 1012.8
20260904025548 67 269 0.0 2.0 0.00 0.00 0.00 72 1012.7
20260904025045 67 279 1.0 3.0 0.00 0.00 0.00 72 1012.7
20260904024527 67 314 1.0 3.0 0.00 0.00 0.00 71 1012.6
20260904024045 68 314 0.0 1.0 0.00 0.00 0.00 71 1012.6
20260904023526 68 46 1.0 2.0 0.00 0.00 0.00 71 1012.7
20260904023035 68 1 1.0 4.0 0.00 0.00 0.00 70 1012.7
20260904022534 68 135 2.0 4.0 0.00 0.00 0.00 70 1012.6
20260904022026 69 318 1.0 2.0 0.00 0.00 0.00 69 1012.6
20260904021522 69 331 1.0 4.0 0.00 0.00 0.00 69 1012.6
20260904021023 69 89 1.0 4.0 0.00 0.00 0.00 69 1012.6
20260904020548 70 314 1.0 4.0 0.00 0.00 0.00 68 1012.6
20260904020031 70 302 1.0 4.0 0.00 0.00 0.00 68 1012.7
20260904015555 70 324 1.0 4.0 0.00 0.00 0.00 68 1012.6
20260904015024 70 1 1.0 5.0 0.00 0.00 0.00 67 1012.5
20260904014545 71 321 2.0 5.0 0.00 0.00 0.00 67 1012.5
20260904014017 71 240 1.0 5.0 0.00 0.00 0.00 67 1012.5
20260904013535 71 72 2.0 5.0 0.00 0.00 0.00 66 1012.6
20260904013026 71 231 2.0 8.0 0.00 0.00 0.00 66 1012.5
20260904012540 72 65 3.0 8.0 0.00 0.00 0.00 66 1012.5
20260904012049 72 243 2.0 5.0 0.00 0.00 0.00 66 1012.5
20260904011528 72 331 3.0 7.0 0.00 0.00 0.00 66 1012.5
20260904011036 72 300 2.0 7.0 0.00 0.00 0.00 66 1012.5
20260904010601 73 190 2.0 6.0 0.00 0.00 0.00 65 1012.6
20260904010049 73 336 3.0 6.0 0.00 0.00 0.00 65 1012.7
20260904005528 73 331 2.0 7.0 0.00 0.00 0.00 65 1012.6
20260904005040 73 331 3.0 7.0 0.00 0.00 0.00 65 1012.6
20260904004535 73 240 2.0 6.0 0.00 0.00 0.00 65 1012.6
20260904004045 73 231 2.0 6.0 0.00 0.00 0.00 65 1012.6
20260904003520 74 18 3.0 11.0 0.00 0.00 0.00 64 1012.6
20260904003032 74 336 4.0 11.0 0.00 0.00 0.00 64 1012.6
20260904002535 75 32 3.0 11.0 0.00 0.00 0.00 63 1012.6
20260904002021 75 360 4.0 11.0 0.00 0.00 0.00 62 1012.6
20260904001522 76 222 3.0 8.0 0.00 0.00 0.00 62 1012.7
20260904001038 76 283 2.0 10.0 0.00 0.00 0.00 62 1012.6
20260904000601 76 288 3.0 10.0 0.00 0.00 0.00 62 1012.7
20260904000025 76 302 3.0 8.0 0.00 0.00 0.00 63 1012.7
20260903235523 76 46 2.0 8.0 0.00 0.00 0.00 62 1012.6
20260903235035 76 246 3.0 8.0 0.00 0.00 0.00 62 1012.7
20260903234536 76 229 3.0 9.0 0.00 0.00 0.00 62 1012.8
20260903234047 77 314 4.0 9.0 0.00 0.00 0.00 60 1012.8
20260903233546 77 342 2.0 9.0 0.00 0.00 0.00 60 1012.8
20260903233019 78 147 3.0 7.0 0.00 0.00 0.00 59 1012.9
20260903232521 79 245 2.0 7.0 0.00 0.00 0.00 59 1012.9
20260903232018 79 46 3.0 12.0 0.00 0.00 0.00 59 1012.8
20260903231559 79 222 3.0 8.0 0.00 0.00 0.00 59 1012.9
20260903231049 79 348 3.0 8.0 0.00 0.00 0.00 59 1012.9
20260903230549 79 286 2.0 8.0 0.00 0.00 0.00 60 1012.9
20260903230042 79 63 2.0 7.0 0.00 0.00 0.00 59 1012.9
20260903225516 79 314 3.0 8.0 0.00 0.00 0.00 59 1013.0
20260903225034 79 298 3.0 8.0 0.00 0.00 0.00 59 1012.9
20260903224533 79 354 3.0 10.0 0.00 0.00 0.00 59 1013.0
20260903224025 79 271 4.0 10.0 0.00 0.00 0.00 59 1013.1
20260903223524 80 290 4.0 9.0 0.00 0.00 0.00 57 1013.1
20260903223035 80 314 3.0 9.0 0.00 0.00 0.00 58 1013.1
20260903222535 81 262 4.0 9.0 0.00 0.00 0.00 57 1013.0
20260903222045 81 227 2.0 10.0 0.00 0.00 0.00 57 1013.1
20260903221524 81 46 3.0 10.0 0.00 0.00 0.00 56 1013.2
20260903221038 81 257 3.0 7.0 0.00 0.00 0.00 56 1013.0
20260903220541 81 89 2.0 6.0 0.00 0.00 0.00 57 1013.1
20260903220033 81 331 1.0 9.0 0.00 0.00 0.00 55 1013.1
20260903215533 81 21 4.0 9.0 0.00 0.00 0.00 57 1013.2
20260903215024 81 222 3.0 7.0 0.00 0.00 0.00 57 1013.3
20260903214527 80 269 3.0 7.0 0.00 0.00 0.00 59 1013.2
20260903214018 80 139 3.0 7.0 0.00 0.00 0.00 58 1013.5
20260903213518 79 126 2.0 6.0 0.00 0.00 0.00 60 1013.5
20260903213016 79 74 3.0 14.0 0.00 0.00 0.00 59 1013.5
20260903212537 80 245 4.0 14.0 0.00 0.00 0.00 61 1013.5
20260903212029 79 199 4.0 7.0 0.00 0.00 0.00 60 1013.7
20260903211523 80 337 4.0 10.0 0.00 0.00 0.00 59 1013.6
20260903211051 80 248 2.0 10.0 0.00 0.00 0.00 59 1013.6
20260903210550 80 59 3.0 9.0 0.00 0.00 0.00 60 1013.6
20260903210022 80 310 3.0 11.0 0.00 0.00 0.00 60 1013.7
20260903205523 80 170 3.0 11.0 0.00 0.00 0.00 60 1013.6
20260903205024 80 105 5.0 11.0 0.00 0.00 0.00 58 1013.7
20260903204521 81 260 3.0 9.0 0.00 0.00 0.00 59 1013.6
20260903204019 81 129 4.0 11.0 0.00 0.00 0.00 56 1013.4
20260903203540 82 161 4.0 11.0 0.00 0.00 0.00 55 1013.5
20260903203031 83 63 3.0 8.0 0.00 0.00 0.00 55 1013.4
20260903202533 82 236 4.0 8.0 0.00 0.00 0.00 51 1013.5
20260903202046 82 170 4.0 9.0 0.00 0.00 0.00 50 1013.4
20260903201544 82 210 3.0 9.0 0.00 0.00 0.00 54 1013.5
20260903201019 82 295 2.0 10.0 0.00 0.00 0.00 53 1013.5
20260903200612 82 142 5.0 10.0 0.00 0.00 0.00 50 1013.5
20260903200015 82 178 3.0 6.0 0.00 0.00 0.00 52 1013.5
20260903195534 81 231 2.0 6.0 0.00 0.00 0.00 53 1013.5
20260903195021 81 178 3.0 5.0 0.00 0.00 0.00 53 1013.7
20260903194523 80 178 1.0 7.0 0.00 0.00 0.00 54 1013.8
20260903194022 80 208 2.0 7.0 0.00 0.00 0.00 52 1013.8
20260903193538 80 46 2.0 6.0 0.00 0.00 0.00 54 1013.9
20260903193029 81 125 2.0 7.0 0.00 0.00 0.00 52 1014.1
20260903192549 81 178 3.0 7.0 0.00 0.00 0.00 53 1014.1
20260903192025 80 105 3.0 9.0 0.00 0.00 0.00 53 1014.1
20260903191546 80 46 2.0 9.0 0.00 0.00 0.00 54 1014.3
20260903191016 79 81 2.0 8.0 0.00 0.00 0.00 56 1014.3
20260903190610 79 63 2.0 6.0 0.00 0.00 0.00 55 1014.3
20260903190037 79 178 2.0 6.0 0.00 0.00 0.00 54 1014.3
20260903185558 80 142 2.0 6.0 0.00 0.00 0.00 55 1014.4
20260903185026 80 76 2.0 6.0 0.00 0.00 0.00 54 1014.6
20260903184540 79 135 2.0 6.0 0.00 0.00 0.00 54 1014.7
20260903184050 78 178 4.0 6.0 0.00 0.00 0.00 55 1014.7
20260903183523 78 220 3.0 6.0 0.00 0.00 0.00 57 1014.7
20260903183041 77 220 3.0 8.0 0.00 0.00 0.00 58 1014.8
20260903182542 78 35 4.0 8.0 0.00 0.00 0.00 57 1014.8
20260903182033 78 188 3.0 7.0 0.00 0.00 0.00 57 1014.8
20260903181555 78 229 3.0 7.0 0.00 0.00 0.00 56 1014.8
20260903181020 77 219 3.0 6.0 0.00 0.00 0.00 58 1014.7
20260903180541 77 142 2.0 6.0 0.00 0.00 0.00 58 1014.7
20260903180054 77 169 2.0 6.0 0.00 0.00 0.00 58 1014.8
20260903175534 76 160 2.0 8.0 0.00 0.00 0.00 59 1014.9
20260903175026 76 103 4.0 8.0 0.00 0.00 0.00 59 1014.9
20260903174522 76 173 2.0 5.0 0.00 0.00 0.00 60 1014.9
20260903174034 76 167 2.0 6.0 0.00 0.00 0.00 60 1015.0
20260903173535 75 128 2.0 7.0 0.00 0.00 0.00 63 1015.0
20260903173026 75 218 2.0 7.0 0.00 0.00 0.00 62 1015.0
20260903172547 74 127 3.0 6.0 0.00 0.00 0.00 63 1015.0
20260903172017 73 311 2.0 5.0 0.00 0.00 0.00 65 1015.0
20260903171533 73 143 2.0 6.0 0.00 0.00 0.00 66 1015.0
20260903171022 73 334 3.0 6.0 0.00 0.00 0.00 65 1015.0
20260903170544 73 82 1.0 7.0 0.00 0.00 0.00 66 1015.1
20260903170031 73 219 3.0 7.0 0.00 0.00 0.00 65 1015.1
20260903165532 72 89 2.0 5.0 0.00 0.00 0.00 66 1015.0
20260903165019 72 32 2.0 5.0 0.00 0.00 0.00 67 1015.1
20260903164521 72 56 1.0 5.0 0.00 0.00 0.00 66 1015.1
20260903164019 71 89 2.0 6.0 0.00 0.00 0.00 67 1015.1
20260903163541 71 191 3.0 6.0 0.00 0.00 0.00 67 1015.1
20260903163033 71 1 1.0 7.0 0.00 0.00 0.00 67 1015.0
20260903162532 70 152 2.0 7.0 0.00 0.00 0.00 69 1015.0
20260903162019 70 129 3.0 7.0 0.00 0.00 0.00 72 1015.0
20260903161518 69 89 3.0 6.0 0.00 0.00 0.00 72 1015.0
20260903161016 68 222 2.0 4.0 0.00 0.00 0.00 74 1015.0
20260903160559 68 89 1.0 7.0 0.00 0.00 0.00 75 1015.1
20260903160024 67 152 2.0 7.0 0.00 0.00 0.00 76 1015.0
20260903155523 66 46 3.0 6.0 0.00 0.00 0.00 78 1015.0
20260903155038 66 135 1.0 5.0 0.00 0.00 0.00 81 1015.0
20260903154559 65 164 2.0 6.0 0.00 0.00 0.00 82 1015.0
20260903154050 64 170 1.0 6.0 0.00 0.00 0.00 84 1015.0
20260903153522 63 58 2.0 5.0 0.00 0.00 0.00 87 1015.1
20260903153056 63 139 2.0 6.0 0.00 0.00 0.00 90 1015.1
20260903152534 62 37 2.0 7.0 0.00 0.00 0.00 92 1015.0
20260903152026 61 89 2.0 7.0 0.00 0.00 0.00 93 1015.0
20260903151519 60 117 1.0 6.0 0.00 0.00 0.00 93 1015.1
20260903151030 60 173 3.0 6.0 0.00 0.00 0.00 93 1015.1
20260903150619 59 108 2.0 4.0 0.00 0.00 0.00 93 1015.0
20260903150025 58 140 1.0 3.0 0.00 0.00 0.00 93 1015.0
20260903145525 57 121 1.0 3.0 0.00 0.00 0.00 93 1015.0
20260903145016 56 178 1.0 3.0 0.00 0.00 0.00 93 1014.9
20260903144537 55 240 1.0 3.0 0.00 0.00 0.00 92 1014.9
20260903144029 54 314 1.0 2.0 0.00 0.00 0.00 92 1014.9
20260903143525 54 28 1.0 2.0 0.00 0.00 0.00 92 1014.8
20260903143045 54 89 0.0 1.0 0.00 0.00 0.00 91 1014.8
20260903142524 54 178 0.0 1.0 0.00 0.00 0.00 91 1014.8
20260903142022 54 331 0.0 1.0 0.00 0.00 0.00 91 1014.8
20260903141524 54 89 0.0 1.0 0.00 0.00 0.00 91 1014.7
20260903141021 53 331 0.0 2.0 0.00 0.00 0.00 91 1014.7
20260903140559 53 35 1.0 2.0 0.00 0.00 0.00 91 1014.7
20260903140025 53 46 0.0 2.0 0.00 0.00 0.00 91 1014.7
20260903135526 53 269 1.0 2.0 0.00 0.00 0.00 91 1014.7
20260903135017 53 1 0.0 1.0 0.00 0.00 0.00 91 1014.6
20260903134557 53 135 0.0 1.0 0.00 0.00 0.00 90 1014.7
20260903134023 53 178 0.0 1.0 0.00 0.00 0.00 90 1014.6
20260903133525 53 1 1.0 1.0 0.00 0.00 0.00 90 1014.6
20260903133042 53 1 1.0 2.0 0.00 0.00 0.00 90 1014.6
20260903132524 53 117 0.0 2.0 0.00 0.00 0.00 90 1014.6
20260903132023 53 178 0.0 2.0 0.00 0.00 0.00 90 1014.6
20260903131545 53 46 1.0 2.0 0.00 0.00 0.00 90 1014.5
20260903131019 53 1 1.0 2.0 0.00 0.00 0.00 90 1014.5
20260903130541 53 1 1.0 2.0 0.00 0.00 0.00 89 1014.6
20260903130014 53 314 1.0 2.0 0.00 0.00 0.00 89 1014.5
20260903125555 53 46 1.0 1.0 0.00 0.00 0.00 89 1014.5
20260903125026 53 46 0.0 1.0 0.00 0.00 0.00 89 1014.4
20260903124523 53 46 0.0 1.0 0.00 0.00 0.00 89 1014.5
20260903124019 53 20 1.0 1.0 0.00 0.00 0.00 92 1014.5
20260903123520 53 295 0.0 1.0 0.00 0.00 0.00 89 1014.5
20260903123031 53 46 1.0 2.0 0.00 0.00 0.00 89 1014.4
20260903122532 53 13 0.0 2.0 0.00 0.00 0.00 89 1014.4
20260903122023 53 46 0.0 1.0 0.00 0.00 0.00 89 1014.6
20260903121520 53 28 0.0 1.0 0.00 0.00 0.00 89 1014.6
20260903121032 53 46 0.0 1.0 0.00 0.00 0.00 88 1014.6
20260903120558 53 295 0.0 1.0 0.00 0.00 0.00 88 1014.7
20260903120045 53 46 0.0 1.0 0.00 0.00 0.00 88 1014.7
20260903115538 54 89 0.0 1.0 0.00 0.00 0.00 88 1014.7
20260903115026 54 314 0.0 1.0 0.00 0.00 0.00 88 1014.7
20260903114545 54 28 0.0 1.0 0.00 0.00 0.00 88 1014.7
20260903114023 54 89 0.0 1.0 0.00 0.00 0.00 88 1014.8
20260903113524 54 28 1.0 1.0 0.00 0.00 0.00 88 1014.8
20260903113022 54 46 0.0 1.0 0.00 0.00 0.00 88 1014.7
20260903112524 54 46 0.0 2.0 0.00 0.00 0.00 87 1014.8
20260903112034 54 46 0.0 1.0 0.00 0.00 0.00 87 1014.8
20260903111531 54 28 0.0 1.0 0.00 0.00 0.00 87 1014.8
20260903111023 54 20 0.0 1.0 0.00 0.00 0.00 87 1014.9
20260903110549 54 28 0.0 2.0 0.00 0.00 0.00 87 1014.9
20260903110022 54 63 0.0 2.0 0.00 0.00 0.00 88 1014.9
20260903105545 54 63 0.0 2.0 0.00 0.00 0.00 87 1014.8
20260903105018 54 46 1.0 2.0 0.00 0.00 0.00 87 1014.9
20260903104539 54 46 0.0 2.0 0.00 0.00 0.00 87 1014.9
20260903104030 54 46 0.0 2.0 0.00 0.00 0.00 87 1015.0
20260903103533 54 1 1.0 2.0 0.00 0.00 0.00 87 1015.0
20260903103025 55 35 0.0 2.0 0.00 0.00 0.00 87 1015.0
20260903102527 55 108 0.0 2.0 0.00 0.00 0.00 87 1015.0
20260903102032 55 46 1.0 2.0 0.00 0.00 0.00 87 1015.0
20260903101535 55 46 0.0 2.0 0.00 0.00 0.00 87 1015.1
20260903101055 55 46 0.0 2.0 0.00 0.00 0.00 87 1015.0
20260903100559 55 15 1.0 2.0 0.00 0.00 0.00 87 1015.0
20260903100023 55 344 0.0 2.0 0.00 0.00 0.00 87 1015.0
20260903095519 55 1 0.0 2.0 0.00 0.00 0.00 87 1015.1
20260903095033 55 89 1.0 2.0 0.00 0.00 0.00 87 1015.1
20260903094532 55 35 1.0 2.0 0.00 0.00 0.00 87 1015.2